This is the latest recevied weather packets stored in our database for station/object G7UKK-10. If no packets are shown the sender has not sent any weather packets the latest 10 day(s).
| Time | Temp. | Humidity | Pressure | Rain* | Wind** | Luminosity | Snow |
|---|---|---|---|---|---|---|---|
| 1777781417 | 10° C | 96% | 1009.8 hPa | 1.02 mm | - | - | - |
| 1777780517 | 10° C | 96% | 1009.8 hPa | 2.79 mm | - | - | - |
| 1777779617 | 10° C | 96% | 1010.1 hPa | 3.3 mm | - | - | - |
| 1777778717 | 10° C | 96% | 1010.1 hPa | 4.06 mm | - | - | - |
| 1777777817 | 10° C | 96% | 1010.4 hPa | 5.08 mm | - | - | - |
| 1777776917 | 10.56° C | 96% | 1010.4 hPa | 4.06 mm | - | - | - |
| 1777776017 | 10.56° C | 96% | 1010.6 hPa | 3.3 mm | - | - | - |
| 1777775117 | 10.56° C | 96% | 1010.5 hPa | 3.3 mm | - | - | - |
| 1777774217 | 10.56° C | 96% | 1010.7 hPa | 1.78 mm | - | - | - |
| 1777773317 | 10.56° C | 96% | 1011.1 hPa | 0.76 mm | - | - | - |
| 1777772417 | 10.56° C | 95% | 1011.4 hPa | 2.54 mm | - | - | - |
| 1777771517 | 10.56° C | 95% | 1011.5 hPa | 3.05 mm | - | - | - |
| 1777770617 | 10.56° C | 95% | 1011.6 hPa | 2.79 mm | - | - | - |
| 1777769717 | 10.56° C | 95% | 1012.2 hPa | 1.27 mm | - | - | - |
| 1777768817 | 10.56° C | 95% | 1012.1 hPa | 0.25 mm | - | - | - |
| 1777767917 | 11.11° C | 95% | 1012.2 hPa | 0.25 mm | - | - | - |
| 1777767017 | 11.11° C | 95% | 1012.1 hPa | 0.25 mm | - | - | - |
| 1777766117 | 11.11° C | 94% | 1012.3 hPa | 0.25 mm | - | - | - |
| 1777765217 | 11.11° C | 94% | 1012.5 hPa | 0 mm | - | - | - |
| 1777764317 | 11.11° C | 94% | 1012.6 hPa | 0 mm | - | - | - |
| 1777763417 | 11.11° C | 93% | 1012.8 hPa | 0 mm | - | - | - |
| 1777762517 | 11.67° C | 93% | 1012.7 hPa | 0.25 mm | - | - | - |
| 1777761617 | 11.67° C | 91% | 1012.9 hPa | 0.51 mm | - | - | - |
| 1777760717 | 11.67° C | 90% | 1013 hPa | 0.51 mm | - | - | - |
| 1777759817 | 11.67° C | 89% | 1013.4 hPa | 1.27 mm | - | - | - |
* Rain latest hour (hover to see other rain measurements)
** Current wind speed in m/s (hover to see current wind gust speed)